CAPE
0 0 0 0 0 0 0 0 0 0 0 0 0 0 0 0 0 0 1 6 3 0 0 0 0 0 0 1 0 0 0 0 0 0 0 0 0 0 42 170 473 520 571 495 575 559 762 799 762 920 909 962 856 1631 1164 1649 1576 1434 1877 985 1652 1576 1924 1849 1690 2078 1938 1953 1888 1522 1388 1732 1960 2105 2200 2303 2278 1614 2124 2556 2909 3251 3122 2982 2952 2946
0 0 0 0 0 0 0 0 0 0 0 0 0 0 0 0 0 0 4 3 0 1 0 0 1 0 0 3 0 0 0 0 0 0 0 0 0 0 0 4 215 452 559 598 612 640 612 1082 848 852 768 1101 950 1355 1424 1477 1660 1481 1692 1378 1248 1872 2034 1942 1853 1837 2000 1863 1782 1686 1568 1560 1838 1864 2122 2250 2095 2029 2489 2944 2881 3166 3204 3089 3092 3236
0 0 0 0 0 0 0 0 0 0 0 0 0 0 0 0 0 1 6 6 0 11 13 0 0 2 0 14 0 0 0 0 0 0 0 0 0 0 0 0 71 207 399 581 636 696 670 870 1003 940 818 852 1133 1313 1620 1469 1602 1517 1483 1840 1148 2269 2091 2064 2036 1827 1933 1973 1923 1677 1730 1565 1663 1896 1956 2180 2284 2119 2271 3131 2831 3188 3167 2947 3061 3176
0 0 0 0 0 0 0 0 0 0 0 0 0 0 0 0 0 0 0 2 0 0 8 2 0 0 0 2 5 0 0 0 0 0 0 0 0 0 0 0 5 126 121 606 705 716 822 741 1001 918 994 812 1197 1395 1510 1770 1647 1613 1572 1691 1769 1805 2247 2146 2205 2144 1908 2085 2072 1803 1818 1559 1596 1802 1976 2104 2463 2334 1914 2642 3280 3145 3185 2903 3055 3290
0 0 0 0 0 0 0 0 0 0 0 0 0 0 0 0 0 0 0 2 1 0 1 1 0 0 0 0 2 0 0 0 0 0 0 0 0 0 0 0 0 59 80 477 765 744 762 836 1049 967 1260 1174 1225 1370 1319 1825 1825 1753 1606 1635 2051 1563 2209 2156 2309 2286 2137 2375 2155 1876 1885 1634 1654 2144 2015 1966 2358 2302 2144 2662 3405 3266 3185 3200 3016 3045
0 0 0 0 0 0 0 0 0 0 0 0 0 0 0 0 0 0 0 0 2 0 0 0 2 1 0 0 1 6 2 0 0 0 0 0 0 0 0 0 0 0 59 378 793 793 720 754 902 999 1311 1299 1265 1356 1336 1519 1937 1847 1728 1759 2231 1862 1738 2253 2222 2261 2276 2334 2128 1967 1961 1672 1494 1980 1966 2161 2266 2296 2321 2855 3316 3523 3113 3335 2966 2894
0 0 0 0 0 0 0 0 0 0 0 0 0 0 0 0 0 0 0 0 0 4 0 0 0 20 3 0 0 0 16 12 0 0 0 0 0 0 0 0 0 0 21 183 714 753 647 664 726 1063 1312 1380 1286 1332 1354 1437 1758 1979 1916 1992 2332 2288 1861 1972 2386 2216 2336 2268 2120 1998 2058 1960 1621 1598 2047 2060 2322 2404 2715 2370 3339 3420 3165 3164 3016 2886
0 0 0 0 0 0 0 0 0 0 0 0 0 0 0 0 0 0 0 6 8 3 4 0 0 0 33 0 1 2 0 9 4 0 0 3 0 0 0 0 0 0 17 72 274 676 644 578 683 1077 1398 1413 1324 1305 1305 1412 1630 2068 2198 2270 2375 2531 2350 1980 2315 2359 2362 2226 2119 2199 2131 2182 2125 1876 2101 2266 2382 2585 2883 2736 3259 3204 3064 2949 2814 2481
0 0 0 0 0 0 0 0 0 0 0 0 0 0 0 0 0 0 0 0 0 0 5 2 0 0 0 3 3 8 7 0 0 0 0 24 10 0 0 4 3 0 8 46 46 274 595 530 604 960 1450 1452 1348 1237 1192 1358 1587 2025 2340 2452 2440 2582 2603 2267 2067 2514 2612 2483 2363 2377 2323 2418 2485 2402 2526 2655 2554 2632 2706 2912 2727 2963 2973 2704 2692 2232
0 0 0 0 0 0 0 0 0 0 0 0 0 0 0 0 0 0 0 0 0 0 0 1 0 0 0 0 7 3 1 0 1 14 96 98 73 0 0 0 19 7 0 39 22 80 449 509 545 907 1450 1500 1409 1278 1214 1339 1571 2022 2398 2517 2527 2498 2637 2555 2232 2241 2726 2779 2734 2608 2515 2574 2762 2773 2910 2720 2817 2395 2373 2338 2250 2526 2600 2288 2225 1817
0 0 0 0 0 0 0 0 0 0 0 0 0 0 0 0 0 0 0 0 0 0 0 3 2 0 0 0 0 15 2 6 52 66 114 120 126 60 18 2 2 28 18 38 42 46 197 531 523 806 1523 1577 1496 1363 1218 1375 1552 2070 2454 2562 2590 2499 2524 2635 2519 2200 2365 2826 2820 2740 2728 2783 2972 2897 2834 2717 2541 2417 2054 2219 1808 2151 2240 1861 1817 1814
0 0 0 0 0 0 0 0 0 0 0 0 0 0 0 0 0 0 0 0 0 0 0 2 29 7 0 0 0 0 5 4 64 96 74 80 84 121 76 18 3 20 132 58 67 101 98 426 551 650 1444 1624 1566 1469 1346 1393 1531 2083 2449 2625 2635 2538 2478 2555 2701 2417 2267 2457 2760 2763 2843 3030 3060 2929 2712 2528 2450 2376 1993 1814 2232 2025 1936 1738 1666 1882
0 0 0 0 0 0 0 0 0 0 0 0 0 0 0 0 0 0 0 0 0 0 0 0 0 0 0 0 0 0 1 0 0 41 55 28 18 67 153 109 50 52 87 149 76 115 132 307 684 675 1121 1641 1606 1584 1456 1352 1546 2006 2412 2657 2656 2596 2502 2532 2683 2688 2472 2361 2605 2690 2847 2998 3070 2862 2492 2271 2363 2248 1922 1754 2266 1934 1887 1740 1623 1615
0 0 0 0 0 0 0 0 0 0 0 0 0 0 0 0 0 0 0 0 0 0 0 0 0 0 0 0 0 0 0 0 0 0 4 0 0 0 182 221 122 66 126 144 139 167 188 201 664 783 911 1562 1686 1640 1586 1480 1560 1918 2313 2623 2688 2644 2546 2573 2636 2809 2737 2556 2623 2689 2803 2925 3010 2829 2517 2390 2305 2118 1971 1797 2249 1978 1915 1834 1546 1776
0 0 0 0 0 0 0 0 0 0 0 0 0 0 0 0 0 0 0 0 0 0 0 0 0 0 0 0 0 0 0 0 0 0 0 0 6 2 42 248 180 60 52 170 175 208 381 266 439 883 908 1350 1693 1683 1648 1568 1580 1827 2218 2516 2677 2668 2618 2607 2650 2774 2856 2784 2754 2806 2867 2906 2968 2925 2558 2489 2183 2351 2041 1829 2289 2030 2014 1933 1745 1873
0 0 0 0 0 0 0 0 0 0 0 0 0 0 0 0 0 0 0 0 0 0 0 0 0 0 0 0 0 0 0 0 0 0 0 0 0 3 24 205 221 86 27 201 215 304 737 514 377 833 1012 1171 1625 1720 1669 1630 1557 1759 2134 2421 2590 2669 2701 2685 2758 2770 2811 2884 2858 2914 2973 2972 2972 2920 2706 2658 2228 2618 2208 1878 2443 2173 2033 2004 1858 1823
0 0 0 0 0 0 0 0 0 0 0 0 0 0 0 0 0 0 0 0 0 0 0 0 0 0 0 0 0 0 0 0 0 0 0 0 0 0 26 137 188 74 44 62 158 248 756 992 740 749 1115 1195 1490 1736 1711 1657 1575 1739 2065 2403 2546 2627 2762 2781 2804 2835 2806 2874 2955 3006 3050 3048 2983 2882 2844 2788 2455 2663 2482 2184 2423 2353 2203 1976 1967 1852
0 0 0 0 0 0 0 0 0 0 0 0 0 0 0 0 0 0 0 0 0 0 0 0 0 0 0 0 0 0 0 0 0 0 0 0 1 16 85 162 169 133 309 317 235 238 285 1049 1098 937 1153 1366 1445 1679 1717 1677 1572 1783 2086 2416 2557 2641 2826 2858 2864 2874 2874 2886 2995 3098 3127 3079 3008 2866 2894 2928 2618 2620 2638 2425 2427 2419 2327 2122 1924 1975
0 0 0 0 0 0 0 0 0 0 0 0 0 0 0 0 0 0 0 0 0 0 0 0 0 0 0 0 0 0 0 0 0 0 0 0 0 77 97 159 216 308 561 613 498 420 420 544 1136 1148 1118 1402 1565 1624 1688 1664 1638 1878 2189 2490 2562 2684 2832 2926 2896 2899 2963 2943 3028 3167 3174 3124 3073 2910 2881 2951 2785 2643 2589 2531 2434 2429 2380 2218 1976 1893
0 0 0 0 0 0 0 0 0 0 0 0 0 0 0 0 0 0 0 0 0 0 0 0 0 0 0 0 0 0 0 0 0 0 0 0 0 5 84 208 312 508 674 790 789 768 715 684 806 1151 1185 1234 1568 1704 1704 1735 1760 1956 2270 2578 2668 2698 2865 2983 2982 2993 3030 3055 3087 3201 3224 3152 3107 2979 2896 2938 2942 2664 2627 2576 2430 2400 2375 2292 2210 1867
0 0 0 0 0 0 0 0 0 0 0 0 0 0 0 0 0 0 0 0 0 0 0 0 0 0 0 0 0 0 0 0 0 0 0 0 0 0 16 156 438 638 767 842 907 900 753 818 803 948 1188 1306 1636 1799 1763 1798 1831 1969 2290 2568 2716 2768 2891 3044 3075 3076 3094 3165 3170 3190 3255 3202 3118 3070 2938 2923 2996 2746 2652 2600 2527 2421 2247 2303 2272 2009
0 0 0 0 0 0 0 0 0 0 0 0 0 0 0 0 0 0 0 0 0 0 0 0 0 0 0 0 0 0 0 0 0 0 0 0 0 0 3 86 288 590 636 619 616 254 361 867 1021 956 1016 1224 1740 1973 1879 1843 1847 1880 2206 2488 2746 2824 2901 3022 3121 3115 3134 3227 3235 3191 3240 3241 3134 3141 3009 2910 2924 2868 2650 2574 2544 2499 2312 2261 2236 2156
0 0 0 0 0 0 0 0 0 0 0 0 0 0 0 0 0 0 0 0 0 0 0 0 0 0 0 0 0 0 73 0 0 1 0 0 0 0 4 96 224 368 482 502 361 257 581 869 1101 1154 1151 1270 1633 1994 1965 1892 1854 1877 2085 2353 2674 2865 2935 3024 3107 3124 3144 3204 3266 3214 3260 3277 3205 3162 3097 2914 2841 2874 2750 2592 2508 2501 2412 2348 2245 2212
0 0 0 0 0 0 0 0 0 0 0 0 0 0 0 0 0 0 0 0 0 0 0 0 0 0 0 0 13 67 233 18 0 0 0 0 0 0 0 206 196 202 411 509 440 200 774 1125 1067 1119 1293 1332 1461 1889 1974 1946 1922 1875 1985 2219 2482 2764 2965 3045 3113 3149 3168 3184 3242 3246 3246 3295 3267 3208 3166 2977 2804 2830 2777 2647 2518 2515 2459 2434 2371 2267
0 0 0 0 0 0 0 0 0 0 0 0 0 0 0 0 0 0 0 0 0 0 0 0 0 0 0 0 282 42 267 6 5 0 0 0 0 0 0 86 222 153 185 199 169 184 708 1204 1242 1143 1431 1652 1672 1864 1939 1962 1931 1877 1771 2029 2276 2501 2821 2964 3072 3203 3259 3228 3192 3218 3231 3277 3305 3242 3214 3088 2879 2750 2740 2653 2560 2482 2475 2432 2403 2386
0 0 0 0 0 0 0 0 0 0 0 0 0 0 0 0 0 0 0 0 0 0 0 0 0 0 0 0 0 173 5 12 44 0 1 0 0 0 0 182 218 176 193 286 231 413 702 1102 1311 1300 1416 1824 1932 2018 2023 1966 1872 1873 1860 1836 2027 2228 2462 2715 2891 3184 3345 3334 3231 3191 3206 3268 3294 3265 3237 3159 2972 2786 2653 2578 2535 2508 2402 2371 2360 2333
0 0 0 0 0 0 0 0 0 0 0 0 0 0 0 0 0 0 0 0 0 0 0 0 0 0 0 0 0 7 8 0 0 76 9 35 128 217 561 613 232 358 555 555 532 615 722 902 1018 1417 1588 1905 2104 2142 2136 2076 2055 2044 2035 2006 1902 1957 2175 2447 2722 3116 3395 3410 3276 3201 3213 3260 3282 3283 3249 3145 2998 2811 2660 2473 2391 2479 2522 2330 2185 2159
2 0 0 0 0 0 0 0 0 0 0 0 0 0 0 0 0 0 0 0 0 0 0 0 0 0 0 0 0 5 0 5 117 18 23 30 745 545 566 597 895 690 678 652 571 601 776 1041 1212 1538 1711 1895 2126 2231 2356 2209 2200 2173 2156 2118 2003 1820 2301 2653 2846 3014 3291 3432 3306 3192 3176 3200 3265 3309 3253 3147 2994 2791 2645 2470 2296 2337 2499 2561 2466 2254
34 4 0 0 0 0 0 0 0 0 0 0 0 0 0 0 0 0 0 0 0 0 0 0 20 7 0 0 0 2 5 3 202 126 20 23 1177 1261 926 704 859 778 701 606 573 532 1076 1298 1432 1520 1690 1911 2085 2200 2416 2367 2289 2241 2200 2136 2098 1959 2306 2660 2987 3106 3214 3334 3268 3129 3091 3106 3162 3264 3310 3215 3042 2784 2602 2492 2332 2278 2440 2586 2572 2536
7 40 14 0 0 0 0 0 0 0 0 0 0 0 0 0 0 0 0 0 0 0 0 0 0 0 22 0 0 8 87 80 202 268 21 92 1436 1452 1616 1304 921 916 743 698 977 1106 1246 1416 1595 1694 1754 1754 1711 1887 2176 2442 2366 2295 2245 2223 2172 2051 2053 2355 2806 3049 3128 3299 3240 3035 2954 2965 3019 3135 3311 3322 3167 2935 2722 2587 2462 2380 2472 2686 2674 2589
0 41 12 6 1 0 0 0 0 0 0 0 0 0 0 0 0 0 0 0 0 0 0 0 0 0 0 0 0 0 123 278 56 277 225 11 1154 1439 1737 1650 1582 1560 1886 1886 1795 1627 1350 1254 1494 1826 2142 2338 2332 2032 2165 2463 2426 2323 2263 2225 2166 2095 1957 2019 2487 2811 2945 3060 3178 3054 2987 2982 3001 3057 3205 3372 3306 3120 2930 2753 2601 2510 2519 2749 2898 2814
0 6 0 11 1 0 0 0 0 0 0 0 0 0 0 0 0 0 0 0 0 0 0 0 0 0 0 0 0 0 54 157 38 390 19 113 824 1198 1496 1569 2121 2052 2192 2708 2480 2452 2180 2049 2117 2073 2497 2859 2903 2652 2300 2444 2568 2424 2305 2246 2184 2089 1977 1836 2156 2513 2679 2745 2948 3134 3256 3252 3256 3211 3202 3332 3428 3346 3139 2936 2769 2637 2557 2722 3024 3011
3 0 0 1 0 0 0 2 0 0 0 0 0 0 0 0 0 0 0 0 0 0 0 0 0 0 0 0 0 0 0 6 36 12 22 311 141 236 18 903 1988 2386 2313 2436 2467 2377 2351 2640 3560 3563 2969 3105 3241 3043 2706 2524 2573 2546 2396 2254 2189 2100 1994 1860 1803 2158 2340 2382 2609 3082 3448 3497 3496 3491 3383 3342 3422 3440 3337 3113 2876 2727 2710 2944 3043 3059
0 0 0 3 3 1 2 0 0 4 1 0 0 0 0 0 0 0 0 0 0 0 0 0 0 0 111 97 0 0 0 0 0 0 2 13 268 399 163 0 0 194 2049 2133 2231 2515 2528 2517 3265 4417 4117 3587 3509 3385 2924 2610 2578 2615 2519 2341 2217 2148 2037 1838 1648 1807 2010 2111 2484 2987 3435 3602 3642 3701 3613 3469 3408 3430 3402 3235 2988 2993 3178 3259 3263 3146
0 0 0 0 0 0 1 4 10 31 0 0 0 0 0 0 0 0 0 0 0 0 0 0 0 0 0 0 0 0 0 16 78 45 325 126 9 230 89 290 397 521 370 2024 2391 2634 2642 2458 2484 3728 4385 4172 3953 3684 3271 2839 2646 2553 2486 2387 2297 2158 2015 1828 1693 1426 1731 1938 2509 3033 3416 3644 3703 3777 3837 3679 3466 3512 3573 3364 3150 3476 3379 3300 3279 3274
0 3 0 0 0 0 2 8 11 0 0 1 2 0 8 18 0 0 0 0 0 0 14 59 381 11 320 108 6 0 13 220 6 193 353 293 148 800 674 365 402 489 460 1699 2920 2935 2802 2718 2734 3272 3883 4058 4003 3858 3592 3191 2857 2688 2553 2400 2299 2181 2057 1897 1731 1496 1547 1685 2524 3201 3529 3731 3802 3923 4045 4032 3939 3886 3892 3675 3545 3504 3326 3189 3135 3092
2 12 69 157 0 1 0 5 6 0 0 1 0 0 0 0 18 9 0 31 294 546 258 151 34 116 395 564 584 224 27 0 0 0 0 2 0 2 22 37 44 20 14 223 1440 2845 3098 3044 2873 3002 3374 3671 3712 3731 3679 3541 3190 3050 2743 2464 2318 2214 2128 1984 1790 1596 1574 1571 2466 3359 3738 3887 4042 4228 4444 4388 4273 4111 4013 3788 3601 3532 3383 3273 3215 3174
20 3 672 3 144 0 1 3 28 7 3 0 0 0 0 64 57 54 74 52 938 855 736 532 468 612 1060 1064 826 352 13 0 0 0 0 0 0 0 0 0 0 0 0 0 522 2465 2999 3100 2944 2918 3266 3455 3540 3565 3587 3554 3478 3416 3199 2760 2408 2299 2187 2059 1823 1990 1803 1802 2630 3616 4017 4230 4454 4615 4591 4485 4353 4210 4047 3828 3686 3551 3459 3348 3247 3194
30 9 40 151 79 24 0 3 10 2 0 1 107 0 203 247 71 162 12 48 1473 976 962 1269 1536 1688 1868 1709 986 368 23 10 19 0 258 156 0 0 0 0 0 0 374 335 141 2904 3386 3256 3153 3298 3690 3666 3534 3543 3544 3578 3597 3510 3435 3266 2970 2880 2564 2102 1815 2466 2230 2291 3290 4112 4486 4700 4707 4673 4608 4522 4430 4322 4180 4010 3825 3738 3596 3474 3367 3260
8 24 32 10 10 132 53 0 0 0 7 512 130 42 402 199 0 21 53 176 1240 911 986 1181 1337 1551 1709 1866 1428 1158 1206 1158 1327 1876 1772 697 94 407 59 0 905 1028 1160 1500 1448 1834 3842 3916 3829 4056 4142 3883 3602 3574 3613 3635 3619 3505 3484 3454 3270 3108 3109 2942 3022 3155 2844 3497 4501 4798 4857 4802 4732 4704 4593 4512 4467 4384 4302 4139 4023 3876 3750 3533 3244 2937
5 8 21 31 23 120 62 140 21 37 1015 602 598 448 505 183 137 47 0 934 1519 852 1094 1291 1245 1237 1326 1481 1622 1707 1592 2165 2302 2366 2582 2422 1766 1519 1858 1188 944 1051 833 1233 1624 2016 3440 4339 4188 4263 4360 4146 3848 3658 3664 3616 3603 3486 3452 3467 3399 3240 3217 3666 4029 4061 4436 4846 4958 4928 4870 4823 4755 4657 4556 4483 4463 4415 4267 4152 4041 3913 3615 3181 3003 2902
42 226 1 18 28 82 84 18 89 65 410 530 864 493 388 239 17 39 1322 972 1211 1084 1168 1123 1034 956 1277 1524 1780 2008 2128 1979 1959 1902 2108 2378 2586 2647 2773 2808 2408 1655 1410 2488 3317 2862 2037 3831 4301 4365 4461 4306 4043 3815 3699 3497 3432 3446 3514 3570 3458 3392 3357 4322 4577 4834 4982 4946 4898 4868 4810 4759 4672 4567 4505 4491 4486 4424 4338 4092 3871 3493 3025 2946 2862 2767
75 512 489 274 33 37 648 51 14 0 24 86 520 169 525 261 518 1033 1140 928 1060 1057 1107 1124 1188 1236 1463 1695 1761 1803 1722 1816 1845 1883 1899 1971 2193 2393 2569 2737 2830 2764 2803 2336 2916 3036 3817 2777 3650 4130 4508 4448 4222 3918 3725 3459 3460 3539 3664 3667 3576 3465 4097 4780 4956 5013 4928 4835 4778 4720 4642 4579 4551 4530 4539 4546 4461 4266 3914 3599 3122 2771 2782 2689 2560 2415
300 631 397 427 491 49 28 10 22 126 888 514 230 50 417 945 1160 1197 873 856 659 737 1005 1180 1374 1517 1630 1610 1577 1693 1546 1693 1823 1919 1928 2026 2251 2099 2030 2455 2902 2913 2617 2540 3220 3432 3687 4281 3761 3874 4274 4554 4469 4183 3886 3712 3586 3661 3768 3802 3659 4120 4913 4942 5038 4962 4812 4747 4660 4595 4510 4485 4478 4445 4344 4291 4174 3975 3713 3230 2399 2444 2482 2361 2209 2058
662 156 413 262 487 460 360 598 631 248 476 742 938 567 620 791 904 777 639 642 835 999 1169 1467 1666 1687 1742 1678 1451 1211 1208 1605 1804 1872 1830 1974 2141 2248 2243 2358 2624 2797 2798 2400 2830 3232 3148 3211 3891 3701 3475 3928 4513 4316 4051 3952 3824 3794 3791 3840 4311 4758 4854 4880 4953 4841 4751 4639 4583 4561 4595 4610 4586 4432 4205 4035 3806 3544 3014 2389 2330 2157 2004 2002 1974 1802
313 202 823 578 582 852 583 482 485 151 261 440 620 575 671 877 848 773 670 553 616 772 947 1168 1499 1632 1539 1438 1129 996 1041 1215 1497 1764 1768 1892 2215 2368 2377 2308 2449 2773 2432 2236 2359 3013 3090 3237 3240 3162 2845 3014 3654 3517 3961 3930 3914 3810 3793 4475 4598 4706 4726 4771 4838 4790 4703 4589 4544 4587 4520 4148 4082 3912 3680 3421 3019 2648 2294 2107 1940 1934 1921 1865 1700 1577
200 215 342 288 455 142 58 324 570 381 94 104 293 635 753 704 577 563 555 627 674 692 704 840 957 997 1084 865 944 953 1029 1062 1457 1607 1710 1686 1718 2003 2409 2336 2288 2196 2137 2136 1975 2214 2810 3040 3251 3104 2974 2457 2646 3311 3781 4147 3885 3965 4550 4628 4586 4563 4592 4589 4657 4685 4654 4557 4524 4276 3766 3582 3483 3185 2995 2861 2688 2271 2246 2196 2160 1989 1773 1644 1583 1504
383 534 384 412 333 358 451 601 656 570 262 22 18 552 662 484 497 480 521 496 483 264 468 616 570 579 522 512 691 766 758 820 924 1263 1363 1370 1599 1718 1662 1724 1864 1929 1958 1939 1976 1911 1814 2232 2476 2711 2748 2822 2879 3068 3680 3812 3761 4429 4526 4548 4430 4373 4379 4402 4446 4472 4455 4379 4351 3691 3410 3425 3204 3121 3015 2784 2472 2308 2271 2070 1909 1795 1667 1549 1425 1208
251 453 292 304 335 291 446 730 91 223 109 13 58 461 407 392 414 474 503 478 399 397 496 540 481 445 334 386 448 514 619 672 661 734 936 997 1136 1174 1213 1710 1794 1627 1643 1732 1825 1869 1928 2256 2974 3279 3269 3308 3383 3258 2802 3285 3691 4039 4060 4085 4064 3985 3971 3983 3913 4146 3901 3380 3461 3580 3223 3028 2980 2918 2778 2544 2487 2318 2095 1878 1748 1682 1568 1374 918 587
383 438 417 349 238 131 561 290 409 202 63 174 1 131 11 35 407 514 516 432 470 337 338 325 0 406 473 536 507 494 433 586 653 726 738 755 817 994 1155 1204 1465 1726 1636 1746 1802 1924 2050 1975 3175 3544 3076 2977 2938 3094 2748 2814 2894 3181 3332 3614 3556 3499 3373 3322 3393 3366 2932 3104 2919 2900 2829 2776 2771 2580 2409 2244 2127 1917 1774 1569 1535 1283 1017 548 480 490
218 344 201 81 128 191 241 314 539 485 452 15 147 39 308 92 204 497 479 492 295 23 278 316 358 403 493 552 592 580 553 534 547 524 548 516 608 794 994 1136 1140 1102 1201 1441 1679 1796 1863 1994 2150 2948 2898 2503 2344 2734 2607 2242 1588 2085 2488 2535 2739 2603 2928 2734 2684 2814 3209 2914 2763 2764 2655 2481 2320 2257 2106 1905 1687 1606 1352 799 436 411 433 475 560 581
Wind_Speed
nan nan nan nan nan nan nan nan nan nan nan nan nan nan nan nan nan nan nan nan nan nan nan nan nan nan nan nan nan nan nan nan nan nan nan nan nan nan nan 13 12 10 8 6 3 2 4 5 3 4 3 3 4 6 5 5 5 4 5 4 5 7 8 7 6 5 5 5 4 3 4 3 3 4 4 4 2 4 5 8 8 10 9 10 9 9
nan nan nan nan nan nan nan nan nan nan nan nan nan nan nan nan nan nan nan nan nan nan nan nan nan nan nan nan nan nan nan nan nan nan nan nan nan nan nan nan 13 12 8 9 5 2 3 4 3 4 3 4 4 5 7 6 6 5 6 5 5 7 8 9 9 7 6 4 5 5 5 4 3 4 3 3 2 2 5 10 10 10 10 11 11 11
nan nan nan nan nan nan nan nan nan nan nan nan nan nan nan nan nan nan nan nan nan nan nan nan nan nan nan nan nan nan nan nan nan nan nan nan nan nan nan nan nan 13 10 10 9 5 3 7 7 4 4 5 6 6 7 7 7 7 6 6 6 8 9 8 9 9 7 4 5 5 4 6 3 3 3 2 2 3 5 9 11 11 12 13 13 14
nan nan nan nan nan nan nan nan nan nan nan nan nan nan nan nan nan nan nan nan nan nan nan nan nan nan nan nan nan nan nan nan nan nan nan nan nan nan nan nan nan 16 12 13 12 9 4 6 7 6 5 6 7 7 7 8 10 8 8 8 8 8 10 9 10 10 9 7 6 6 6 5 5 5 4 4 3 4 6 9 12 13 14 15 16 17
nan nan nan nan nan nan nan nan nan nan nan nan nan nan nan nan nan nan nan nan nan nan nan nan nan nan nan nan nan nan nan nan nan nan nan nan nan nan nan nan nan nan nan 14 14 12 8 6 8 9 8 8 7 8 8 9 10 8 11 12 11 11 11 11 11 11 11 9 8 8 7 5 4 5 6 6 4 5 6 10 12 15 17 18 19 20
nan nan nan nan nan nan nan nan nan nan nan nan nan nan nan nan nan nan nan nan nan nan nan nan nan nan nan nan nan nan nan nan nan nan nan nan nan nan nan nan nan nan nan 17 17 17 14 9 9 11 11 10 9 9 9 9 10 11 11 13 13 11 10 12 13 13 12 11 10 10 9 8 5 6 9 8 8 7 8 12 14 16 18 20 21 21
nan nan nan nan nan nan nan nan nan nan nan nan nan nan nan nan nan nan nan nan nan nan nan nan nan nan nan nan nan nan nan nan nan nan nan nan nan nan nan nan nan nan nan 15 16 17 17 15 13 14 13 13 12 11 11 11 11 12 11 11 12 12 10 11 13 15 13 13 11 11 11 10 9 9 9 10 10 11 11 14 17 17 19 22 23 22
nan nan nan nan nan nan nan nan nan nan nan nan nan nan nan nan nan nan nan nan nan nan nan nan nan nan nan nan nan nan nan nan nan nan nan nan nan nan nan nan nan nan nan nan 15 17 19 18 17 18 17 14 13 13 13 13 13 14 13 12 11 10 11 10 12 14 14 14 13 13 11 11 12 11 12 13 13 14 14 16 19 19 19 21 22 22
nan nan nan nan nan nan nan nan nan nan nan nan nan nan nan nan nan nan nan nan nan nan nan nan nan nan nan nan nan nan nan nan nan nan nan nan nan nan nan nan nan nan nan nan nan 16 19 19 18 19 20 18 16 15 14 14 15 16 15 14 12 11 11 11 12 12 14 15 15 14 13 13 12 13 14 15 15 16 16 17 19 20 20 21 20 20
nan nan nan nan nan nan nan nan nan nan nan nan nan nan nan nan nan nan nan nan nan nan nan nan nan nan nan nan nan nan nan nan nan nan nan nan nan nan nan nan nan nan nan nan nan nan 19 20 20 20 22 22 20 19 17 16 16 17 18 17 15 13 12 12 12 12 13 15 15 15 14 15 14 15 15 16 16 16 17 18 20 21 21 20 18 18
nan nan nan nan nan nan nan nan nan nan nan nan nan nan nan nan nan nan nan nan nan nan nan nan nan nan nan nan nan nan nan nan nan nan 19 19 20 nan nan nan nan nan nan nan nan nan 18 20 21 21 22 24 24 23 23 21 19 19 21 21 20 17 15 14 14 14 14 15 15 15 15 16 16 16 17 18 17 17 17 18 19 22 21 19 17 18
nan nan nan nan nan nan nan nan nan nan nan nan nan nan nan nan nan nan nan nan nan nan nan nan nan nan nan nan nan nan nan nan nan nan nan nan nan 19 nan nan nan nan 19 nan nan 15 nan 19 20 20 20 23 24 24 24 22 21 20 21 23 23 21 19 16 16 15 15 15 15 15 16 17 17 18 18 19 19 19 19 19 21 21 20 18 16 17
nan nan nan nan nan nan nan nan nan nan nan nan nan nan nan nan nan nan nan nan nan nan nan nan nan nan nan nan nan nan nan nan nan nan nan nan nan nan 17 17 nan nan nan 18 nan 16 16 18 19 18 18 20 21 22 23 23 22 21 22 24 24 21 20 19 18 18 17 16 16 16 17 17 17 18 19 19 20 20 20 20 21 21 19 17 16 16
nan nan nan nan nan nan nan nan nan nan nan nan nan nan nan nan nan nan nan nan nan nan nan nan nan nan nan nan nan nan nan nan nan nan nan nan nan nan 18 16 18 nan 17 17 17 17 16 16 16 17 17 18 19 21 23 23 23 22 22 23 24 22 20 19 18 19 19 18 17 17 18 18 19 19 19 18 19 19 19 19 21 20 19 17 16 16
nan nan nan nan nan nan nan nan nan nan nan nan nan nan nan nan nan nan nan nan nan nan nan nan nan nan nan nan nan nan nan nan nan nan nan nan nan nan nan 19 17 nan nan 18 15 15 15 13 15 16 16 15 18 22 24 24 24 25 24 24 25 23 21 20 18 18 19 19 19 18 19 19 20 20 20 18 18 18 19 19 19 17 16 15 14 16
nan nan nan nan nan nan nan nan nan nan nan nan nan nan nan nan nan nan nan nan nan nan nan nan nan nan nan nan nan nan nan nan nan nan nan nan nan nan nan 20 18 nan nan 19 17 16 16 15 16 17 15 14 19 23 24 24 25 26 25 25 25 24 22 20 19 17 18 19 19 19 20 20 21 22 21 19 17 17 19 19 18 16 15 14 14 14
nan nan nan nan nan nan nan nan nan nan nan nan nan nan nan nan nan nan nan nan nan nan nan nan nan nan nan nan nan nan nan nan nan nan nan nan nan nan nan 18 17 nan nan nan 17 17 18 19 18 17 15 15 19 22 22 23 23 25 25 24 24 23 21 19 17 17 18 19 19 19 20 22 23 22 21 20 19 19 19 18 15 14 13 14 15 14
nan nan nan nan nan nan nan nan nan nan nan nan nan nan nan nan nan nan nan nan nan nan nan nan nan nan nan nan nan nan nan nan nan nan nan nan nan nan nan 21 19 19 19 17 15 15 18 22 20 18 18 18 20 21 21 22 22 23 23 23 21 20 20 18 17 17 18 18 19 20 21 22 23 22 20 20 19 19 18 15 12 13 13 14 16 16
nan nan nan nan nan nan nan nan nan nan nan nan nan nan nan nan nan nan nan nan nan nan nan nan nan nan nan nan nan nan nan nan nan nan nan nan nan nan nan 26 23 20 16 14 14 13 15 18 18 18 19 21 22 23 24 25 25 22 20 19 18 17 18 19 17 17 18 18 19 21 22 23 23 21 19 19 19 18 16 14 12 13 14 16 17 17
nan nan nan nan nan nan nan nan nan nan nan nan nan nan nan nan nan nan nan nan nan nan nan nan nan nan nan nan nan nan nan nan nan nan nan nan nan nan nan 27 23 18 15 15 12 10 9 11 12 15 19 23 25 26 27 28 26 23 20 18 14 14 15 16 16 16 17 18 19 21 22 22 22 21 19 18 19 16 14 12 12 13 15 17 17 18
nan nan nan nan nan nan nan nan nan nan nan nan nan nan nan nan nan nan nan nan nan nan nan nan nan nan nan nan nan nan nan nan nan nan nan nan nan nan nan 28 20 17 14 13 12 9 7 8 11 13 18 22 24 27 29 29 27 23 20 17 15 15 15 15 15 15 14 16 17 20 20 20 21 19 18 17 17 15 11 10 11 13 15 17 17 18
nan nan nan nan nan nan nan nan nan nan nan nan nan nan nan nan nan nan nan nan nan nan nan nan nan nan nan nan nan nan nan nan nan nan nan nan nan nan nan nan 26 18 14 12 11 10 10 13 13 14 18 23 25 26 29 29 27 24 19 16 14 14 14 14 14 13 13 13 15 16 17 18 18 17 16 15 14 12 10 8 10 14 16 17 17 18
nan nan nan nan nan nan nan nan nan nan nan nan nan nan nan nan nan nan nan nan nan nan nan nan nan nan nan nan nan nan nan nan nan nan nan nan nan nan nan nan 33 28 20 14 10 10 14 17 19 20 21 23 24 24 26 26 25 23 19 17 15 16 15 14 14 13 12 12 12 13 14 15 15 14 14 13 11 10 9 8 10 14 16 16 16 17
nan nan nan nan nan nan nan nan nan nan nan nan nan nan nan nan nan nan nan nan nan nan nan nan nan nan nan nan nan nan 19 nan nan nan nan nan nan nan nan 28 29 27 23 20 17 15 17 20 23 24 21 20 21 22 22 23 24 22 18 16 16 17 17 14 12 12 12 10 10 11 12 13 13 13 12 11 9 9 9 10 11 13 15 16 16 17
nan nan nan nan nan nan nan nan nan nan nan nan nan nan nan nan nan nan nan nan nan nan nan nan nan nan nan nan 30 nan 21 nan nan nan nan nan nan nan nan nan 26 26 22 20 20 18 20 24 27 25 21 19 20 20 21 23 24 21 17 16 15 15 17 13 10 11 12 11 11 11 11 12 12 12 11 10 8 9 10 11 12 13 14 16 17 19
nan nan nan nan nan nan nan nan nan nan nan nan nan nan nan nan nan nan nan nan nan nan nan nan nan nan nan nan nan 28 nan nan nan nan nan nan nan nan nan 23 22 21 20 24 24 24 22 23 25 26 24 21 20 21 21 22 21 19 18 17 15 15 16 13 9 10 12 11 11 10 11 11 11 10 10 9 8 10 10 11 13 14 14 16 18 19
nan nan nan nan nan nan nan nan nan nan nan nan nan nan nan nan nan nan nan nan nan nan nan nan nan nan nan nan nan nan nan nan nan nan nan nan 25 25 26 23 17 18 22 25 25 23 23 24 27 29 30 25 20 20 22 23 21 20 20 19 17 16 16 14 11 10 12 13 12 10 10 10 9 8 8 7 8 9 10 11 13 15 16 17 18 18
nan nan nan nan nan nan nan nan nan nan nan nan nan nan nan nan nan nan nan nan nan nan nan nan nan nan nan nan nan nan nan nan 25 nan nan nan 24 24 29 29 24 20 20 23 24 25 25 25 29 34 34 30 22 20 22 23 24 24 23 22 19 18 17 15 12 11 12 13 12 10 9 8 7 7 7 6 7 8 10 11 12 14 17 18 19 19
nan nan nan nan nan nan nan nan nan nan nan nan nan nan nan nan nan nan nan nan nan nan nan nan nan nan nan nan nan nan nan nan 19 23 nan nan 28 31 33 33 30 25 21 22 26 30 31 31 34 35 36 31 27 24 24 25 26 26 26 25 23 20 19 18 15 12 12 13 12 10 8 6 5 6 7 7 7 7 9 11 12 14 16 18 19 19
nan nan nan nan nan nan nan nan nan nan nan nan nan nan nan nan nan nan nan nan nan nan nan nan nan nan nan nan nan nan nan nan 21 25 nan nan 40 39 38 35 32 28 25 25 27 30 33 34 35 36 36 33 30 27 25 26 27 27 27 26 25 23 22 20 16 13 11 12 12 10 7 6 6 7 7 7 7 8 9 11 12 13 14 16 18 20
nan nan nan nan nan nan nan nan nan nan nan nan nan nan nan nan nan nan nan nan nan nan nan nan nan nan nan nan nan nan 29 28 nan 31 34 nan 41 40 40 37 35 31 27 27 31 33 34 36 36 36 34 32 30 28 26 25 25 26 27 28 29 28 26 24 19 14 11 11 12 11 9 8 7 7 6 6 7 8 10 12 13 13 14 15 17 20
nan nan nan nan nan nan nan nan nan nan nan nan nan nan nan nan nan nan nan nan nan nan nan nan nan nan nan nan nan nan nan 34 nan 32 nan 35 37 37 38 37 35 33 30 31 34 38 38 37 37 36 32 28 27 27 26 24 25 27 27 30 30 31 31 28 23 16 11 11 13 13 11 8 7 6 6 7 9 10 11 13 14 15 16 18 20 22
nan nan nan nan nan nan nan nan nan nan nan nan nan nan nan nan nan nan nan nan nan nan nan nan nan nan nan nan nan nan nan nan nan nan nan 32 31 27 nan 37 38 36 35 36 35 38 41 42 42 40 35 30 28 27 26 27 29 29 30 30 31 33 32 31 27 19 13 12 14 13 12 10 8 7 8 8 10 11 14 16 17 19 21 22 23 26
nan nan nan nan nan nan nan nan nan nan nan nan nan nan nan nan nan nan nan nan nan nan nan nan nan nan 36 nan nan nan nan nan nan nan nan nan 32 30 30 nan nan 35 36 38 39 40 42 43 41 39 35 32 29 27 28 32 32 31 32 32 33 34 32 32 31 24 16 14 14 13 12 11 9 8 10 11 13 15 18 20 21 23 24 25 27 29
nan nan nan nan nan nan nan nan nan nan nan nan nan nan nan nan nan nan nan nan nan nan nan nan nan nan nan nan nan nan nan nan nan nan 42 35 nan 35 nan 38 40 39 42 41 40 40 41 39 38 37 34 30 27 26 31 33 31 32 33 35 35 34 33 32 33 29 21 15 14 14 12 12 12 11 13 16 18 20 21 23 25 27 27 29 30 32
nan nan nan nan nan nan nan nan nan nan nan nan nan nan nan nan nan nan nan nan nan nan nan nan 28 nan 34 36 nan nan nan 44 nan 51 50 49 45 42 42 42 40 38 40 41 37 37 40 42 41 39 35 30 27 28 31 32 33 34 34 35 35 34 33 33 33 33 27 19 16 14 14 14 14 15 17 19 22 23 24 25 28 29 30 31 31 33
nan nan nan 55 nan nan nan nan nan nan nan nan nan nan nan nan nan nan nan nan 43 45 43 39 nan 38 39 37 37 42 nan nan nan nan nan nan nan nan nan nan nan nan nan 41 37 35 39 41 39 37 39 37 32 29 29 33 36 36 36 34 34 34 34 34 33 34 32 24 18 16 15 15 15 16 18 21 23 24 26 28 30 31 32 34 34 36
nan nan 56 nan 56 nan nan nan nan nan nan nan nan nan nan nan nan nan nan nan 50 49 50 51 47 45 44 40 41 42 nan nan nan nan nan nan nan nan nan nan nan nan nan nan 40 36 39 40 37 34 38 43 39 31 30 34 36 37 36 34 34 35 35 35 33 34 34 28 22 19 19 18 18 18 20 22 25 27 28 30 31 33 34 35 35 37
nan nan nan 52 nan nan nan nan nan nan nan nan 48 nan 45 46 nan 55 nan nan 54 53 57 59 60 56 50 47 43 46 nan nan nan nan 41 46 nan nan nan nan nan nan 57 53 45 42 40 41 38 36 38 40 37 34 34 34 34 36 36 35 34 35 35 35 35 36 35 32 27 24 22 23 22 22 23 25 28 30 32 33 34 34 34 34 34 37
nan nan nan nan nan 51 nan nan nan nan nan 58 51 nan 50 54 nan nan nan 53 53 55 58 62 65 61 55 51 50 53 50 48 45 44 43 42 nan 51 nan nan 61 67 64 64 60 51 43 45 45 45 45 40 32 33 35 34 32 33 37 36 35 34 35 36 37 37 38 37 34 29 26 26 27 26 26 28 30 32 33 34 36 36 36 36 38 41
nan nan nan nan nan 52 nan 55 nan nan 59 60 59 53 50 53 54 nan nan 49 50 56 59 63 64 61 57 56 56 54 51 51 47 45 49 47 43 46 48 46 50 54 62 68 66 62 53 48 46 47 50 47 38 35 38 40 37 36 40 42 40 36 35 38 41 43 44 43 38 33 30 29 30 30 29 31 34 35 35 36 38 38 39 41 42 44
nan 59 nan nan nan nan nan nan nan nan 56 57 55 58 53 49 nan nan 50 51 57 58 59 58 59 59 59 58 54 54 56 58 55 56 57 53 46 46 47 46 44 44 49 57 67 69 64 56 51 51 54 57 53 47 48 51 48 45 46 48 44 39 39 43 45 47 48 46 41 37 34 34 33 32 32 35 37 38 39 39 40 40 43 44 45 47
nan 56 55 52 nan nan 56 nan nan nan nan nan 52 53 53 50 48 52 55 60 59 60 58 57 56 55 54 55 57 59 61 63 63 60 57 54 51 49 48 51 51 49 46 46 52 62 67 61 59 57 58 62 60 58 57 55 50 48 49 48 46 47 48 48 48 49 48 46 43 40 38 36 36 35 35 37 40 42 43 41 42 43 45 47 48 49
63 54 55 56 61 nan nan nan nan 46 50 45 43 nan 48 50 51 55 58 59 60 61 58 54 54 51 50 52 56 61 63 63 64 63 59 58 57 56 55 55 56 55 55 50 46 48 52 58 62 64 66 66 64 62 64 58 49 47 49 48 52 56 55 52 51 50 49 47 45 43 41 39 38 39 39 41 42 44 45 44 44 45 46 48 50 51
68 58 51 51 56 57 57 55 52 55 52 48 55 54 53 55 57 60 60 59 59 60 56 56 53 53 53 53 56 58 59 59 60 63 63 60 61 63 62 61 60 60 58 55 51 50 51 52 62 73 79 76 67 66 68 64 54 49 49 54 60 60 57 55 55 53 50 48 46 44 42 40 40 42 43 43 45 46 45 46 47 47 46 49 50 51
68 59 51 50 51 54 49 44 50 52 51 51 52 55 59 58 60 60 59 56 56 57 56 53 54 58 58 55 56 55 54 50 55 63 64 62 63 65 67 67 67 67 65 60 54 55 50 54 60 64 70 80 82 67 63 64 56 51 55 60 61 62 61 60 60 58 53 49 47 45 44 44 44 46 47 47 45 45 45 47 47 47 47 49 50 51
77 65 59 58 56 60 nan 61 62 55 nan 44 41 52 61 66 64 61 59 53 50 53 56 55 56 58 57 57 56 54 54 52 52 57 58 59 62 65 68 68 66 65 66 62 58 55 54 57 63 66 72 71 66 68 64 58 55 55 61 64 63 64 64 63 63 62 57 51 48 46 44 46 45 46 47 46 46 46 46 46 46 48 48 49 51 51
78 82 65 59 58 56 56 62 60 54 42 nan nan 52 58 64 65 61 57 53 51 53 55 53 55 58 55 56 52 53 55 55 56 55 56 57 59 62 65 67 67 67 64 63 62 58 55 59 64 70 74 73 69 64 63 61 62 62 64 67 67 66 67 68 67 64 60 56 50 46 46 47 49 47 44 45 46 46 46 46 46 48 49 49 50 52
69 77 72 67 60 59 58 57 nan 60 51 nan nan 60 55 56 59 58 54 53 53 53 52 55 55 53 55 55 53 52 55 56 55 54 55 56 61 62 61 61 64 65 66 68 64 59 56 58 63 67 72 74 71 70 65 57 67 82 86 83 81 80 80 79 77 71 64 57 50 45 44 43 43 43 44 46 47 45 43 45 47 49 48 44 46 52
58 66 73 73 66 62 64 62 60 62 nan 49 nan 62 nan nan 54 57 56 54 51 49 48 52 nan 53 54 52 52 53 56 55 56 55 58 58 58 57 58 59 58 60 64 64 63 61 58 61 62 65 70 69 69 70 69 59 56 70 79 77 75 76 74 68 64 58 51 44 38 37 39 41 42 42 44 45 46 48 49 52 53 49 50 48 48 51
52 58 67 nan 71 64 62 61 60 60 58 nan 50 nan 60 nan 48 54 57 53 49 nan 46 48 51 54 54 52 50 53 53 54 55 55 58 59 58 55 53 52 53 53 55 59 64 60 56 62 68 66 65 62 63 66 65 64 55 65 69 65 61 59 56 52 47 42 37 33 31 34 38 40 41 42 43 44 47 49 51 51 53 58 57 55 53 56
Wind_Direction
nan nan nan nan nan nan nan nan nan nan nan nan nan nan nan nan nan nan nan nan nan nan nan nan nan nan nan nan nan nan nan nan nan nan nan nan nan nan nan 323 326 321 324 330 349 341 309 341 305 270 279 260 275 266 302 281 301 305 269 316 285 315 318 330 343 336 333 331 327 325 347 342 338 341 8 34 29 357 337 337 341 345 346 346 348 340
nan nan nan nan nan nan nan nan nan nan nan nan nan nan nan nan nan nan nan nan nan nan nan nan nan nan nan nan nan nan nan nan nan nan nan nan nan nan nan nan 325 322 300 313 312 279 293 285 325 269 258 263 303 283 305 314 309 307 283 303 293 297 307 329 333 329 332 338 345 334 339 310 317 332 346 30 34 340 315 321 331 338 337 334 333 330
nan nan nan nan nan nan nan nan nan nan nan nan nan nan nan nan nan nan nan nan nan nan nan nan nan nan nan nan nan nan nan nan nan nan nan nan nan nan nan nan nan 312 308 314 314 318 272 302 322 283 287 283 307 290 304 308 303 312 306 278 296 281 300 319 322 322 328 314 316 322 307 322 303 314 323 324 323 314 311 317 327 328 327 323 325 328
nan nan nan nan nan nan nan nan nan nan nan nan nan nan nan nan nan nan nan nan nan nan nan nan nan nan nan nan nan nan nan nan nan nan nan nan nan nan nan nan nan 324 316 316 312 321 308 295 307 298 287 300 292 297 297 306 317 307 308 295 304 296 296 310 316 316 319 314 291 299 298 308 306 312 303 314 301 318 306 318 319 317 318 321 319 319
nan nan nan nan nan nan nan nan nan nan nan nan nan nan nan nan nan nan nan nan nan nan nan nan nan nan nan nan nan nan nan nan nan nan nan nan nan nan nan nan nan nan nan 318 315 317 316 305 306 311 299 301 306 308 309 305 310 303 321 315 312 314 301 306 310 312 304 298 283 285 282 289 270 275 300 304 299 311 302 290 307 315 315 315 315 318
nan nan nan nan nan nan nan nan nan nan nan nan nan nan nan nan nan nan nan nan nan nan nan nan nan nan nan nan nan nan nan nan nan nan nan nan nan nan nan nan nan nan nan 324 324 325 327 320 298 301 304 310 308 308 304 303 304 304 310 314 311 310 308 302 310 308 300 298 298 292 295 302 310 286 294 307 314 301 307 301 302 304 311 311 316 320
nan nan nan nan nan nan nan nan nan nan nan nan nan nan nan nan nan nan nan nan nan nan nan nan nan nan nan nan nan nan nan nan nan nan nan nan nan nan nan nan nan nan nan 321 322 323 326 326 315 306 311 313 312 306 296 297 299 303 307 314 312 312 316 305 304 312 303 298 296 301 300 301 310 299 280 289 291 296 295 292 303 306 309 314 320 324
nan nan nan nan nan nan nan nan nan nan nan nan nan nan nan nan nan nan nan nan nan nan nan nan nan nan nan nan nan nan nan nan nan nan nan nan nan nan nan nan nan nan nan nan 320 325 326 327 323 315 314 309 312 303 300 305 304 307 310 311 314 307 316 321 305 315 310 305 300 297 294 287 287 295 289 289 290 292 295 297 304 307 314 319 321 324
nan nan nan nan nan nan nan nan nan nan nan nan nan nan nan nan nan nan nan nan nan nan nan nan nan nan nan nan nan nan nan nan nan nan nan nan nan nan nan nan nan nan nan nan nan 321 324 327 326 314 313 313 309 304 306 308 307 308 307 309 307 306 309 315 320 311 312 306 305 302 294 287 282 287 284 284 290 295 302 304 306 310 317 320 321 324
nan nan nan nan nan nan nan nan nan nan nan nan nan nan nan nan nan nan nan nan nan nan nan nan nan nan nan nan nan nan nan nan nan nan nan nan nan nan nan nan nan nan nan nan nan nan 320 323 322 317 314 313 315 310 305 306 301 302 301 305 307 305 299 302 316 313 307 306 303 301 297 297 292 287 283 288 292 295 299 307 306 311 315 318 316 321
nan nan nan nan nan nan nan nan nan nan nan nan nan nan nan nan nan nan nan nan nan nan nan nan nan nan nan nan nan nan nan nan nan nan 264 267 273 nan nan nan nan nan nan nan nan nan 311 313 314 310 316 320 313 306 307 306 305 302 303 306 308 307 297 297 307 310 308 303 302 301 301 303 299 297 292 293 297 295 299 304 303 308 313 315 315 319
nan nan nan nan nan nan nan nan nan nan nan nan nan nan nan nan nan nan nan nan nan nan nan nan nan nan nan nan nan nan nan nan nan nan nan nan nan 279 nan nan nan nan 290 nan nan 304 nan 298 307 309 315 318 318 309 307 303 301 301 300 303 307 305 303 296 297 302 303 300 301 298 301 301 298 297 292 299 301 304 307 303 302 305 308 314 315 321
nan nan nan nan nan nan nan nan nan nan nan nan nan nan nan nan nan nan nan nan nan nan nan nan nan nan nan nan nan nan nan nan nan nan nan nan nan nan 282 288 nan nan nan 291 nan 297 301 301 306 314 314 315 319 315 309 303 298 294 294 300 305 307 304 300 297 299 300 299 298 298 299 297 293 295 295 295 300 304 307 303 301 306 310 315 320 324
nan nan nan nan nan nan nan nan nan nan nan nan nan nan nan nan nan nan nan nan nan nan nan nan nan nan nan nan nan nan nan nan nan nan nan nan nan nan 283 285 282 nan 287 285 285 296 307 306 304 315 314 317 318 312 304 302 297 291 289 294 300 303 302 297 296 297 297 299 296 295 295 294 291 294 293 294 297 306 307 306 307 311 316 323 330 328
nan nan nan nan nan nan nan nan nan nan nan nan nan nan nan nan nan nan nan nan nan nan nan nan nan nan nan nan nan nan nan nan nan nan nan nan nan nan nan 280 291 nan nan 276 286 283 287 298 298 305 315 311 306 307 303 300 298 292 289 290 295 296 299 298 296 289 294 291 292 290 290 289 286 289 291 293 296 302 309 309 311 315 319 324 328 330
nan nan nan nan nan nan nan nan nan nan nan nan nan nan nan nan nan nan nan nan nan nan nan nan nan nan nan nan nan nan nan nan nan nan nan nan nan nan nan 278 277 nan nan 280 285 285 282 290 290 294 304 303 296 303 303 304 299 295 292 290 292 294 295 298 294 289 288 286 284 286 287 287 285 283 285 289 295 298 309 315 315 322 324 321 322 319
nan nan nan nan nan nan nan nan nan nan nan nan nan nan nan nan nan nan nan nan nan nan nan nan nan nan nan nan nan nan nan nan nan nan nan nan nan nan nan 286 280 nan nan nan 289 295 284 278 283 289 292 287 290 299 308 307 301 299 292 289 290 289 289 294 295 288 282 281 281 283 282 280 280 284 289 295 303 303 308 315 316 320 324 319 313 310
nan nan nan nan nan nan nan nan nan nan nan nan nan nan nan nan nan nan nan nan nan nan nan nan nan nan nan nan nan nan nan nan nan nan nan nan nan nan nan 289 286 284 291 293 295 292 288 283 290 283 276 283 295 303 303 304 298 296 294 293 293 289 292 293 292 288 281 280 280 279 279 279 282 285 291 296 303 300 305 314 316 315 315 313 310 308
nan nan nan nan nan nan nan nan nan nan nan nan nan nan nan nan nan nan nan nan nan nan nan nan nan nan nan nan nan nan nan nan nan nan nan nan nan nan nan 294 292 296 293 285 283 285 294 298 290 281 283 292 298 299 302 299 297 292 289 293 300 302 299 297 290 285 277 279 270 271 278 281 282 285 292 295 298 300 311 322 324 321 311 307 311 315
nan nan nan nan nan nan nan nan nan nan nan nan nan nan nan nan nan nan nan nan nan nan nan nan nan nan nan nan nan nan nan nan nan nan nan nan nan nan nan 288 291 294 288 279 284 295 312 316 299 287 288 295 300 303 303 302 295 297 293 295 301 303 297 298 300 293 287 280 272 270 271 277 281 286 292 294 298 306 318 326 327 318 308 312 313 320
nan nan nan nan nan nan nan nan nan nan nan nan nan nan nan nan nan nan nan nan nan nan nan nan nan nan nan nan nan nan nan nan nan nan nan nan nan nan nan 291 288 292 290 284 284 292 318 309 285 276 282 292 293 296 302 304 304 297 291 299 310 317 321 325 322 314 298 283 278 275 277 279 280 288 292 296 302 312 323 324 320 312 306 305 319 321
nan nan nan nan nan nan nan nan nan nan nan nan nan nan nan nan nan nan nan nan nan nan nan nan nan nan nan nan nan nan nan nan nan nan nan nan nan nan nan nan 295 289 284 278 283 302 302 293 294 291 284 279 285 299 311 308 299 300 304 306 318 327 334 339 337 331 312 292 282 283 280 284 284 291 295 303 308 320 328 325 311 304 303 318 321 322
nan nan nan nan nan nan nan nan nan nan nan nan nan nan nan nan nan nan nan nan nan nan nan nan nan nan nan nan nan nan nan nan nan nan nan nan nan nan nan nan 303 306 295 274 269 287 299 300 301 303 300 292 289 299 308 303 304 306 308 314 324 335 343 346 349 339 321 310 300 297 289 291 296 302 310 317 317 330 331 323 309 305 315 322 321 320
nan nan nan nan nan nan nan nan nan nan nan nan nan nan nan nan nan nan nan nan nan nan nan nan nan nan nan nan nan nan 216 nan nan nan nan nan nan nan nan 298 291 287 281 261 252 267 286 292 289 287 296 294 281 283 296 300 300 299 305 314 321 337 340 344 347 342 331 326 322 315 309 312 313 321 322 330 328 333 329 319 312 311 320 322 321 326
nan nan nan nan nan nan nan nan nan nan nan nan nan nan nan nan nan nan nan nan nan nan nan nan nan nan nan nan 212 nan 215 nan nan nan nan nan nan nan nan nan 292 286 278 266 262 267 268 273 280 286 290 287 282 281 280 283 290 295 299 303 317 324 329 333 336 337 335 334 337 335 335 335 330 333 336 340 330 336 329 321 315 315 324 322 327 329
nan nan nan nan nan nan nan nan nan nan nan nan nan nan nan nan nan nan nan nan nan nan nan nan nan nan nan nan nan 219 nan nan nan nan nan nan nan nan nan 281 294 290 269 250 250 248 263 273 275 275 272 270 272 274 275 279 283 285 288 299 299 307 314 319 316 327 327 327 334 340 346 345 343 344 347 347 336 333 328 320 318 320 320 324 328 327
nan nan nan nan nan nan nan nan nan nan nan nan nan nan nan nan nan nan nan nan nan nan nan nan nan nan nan nan nan nan nan nan nan nan nan nan 264 269 259 263 280 275 263 261 255 252 260 262 273 279 279 276 273 267 270 277 279 278 281 288 292 296 302 302 302 307 315 320 330 333 346 349 349 340 343 342 332 318 317 321 324 325 324 322 325 326
nan nan nan nan nan nan nan nan nan nan nan nan nan nan nan nan nan nan nan nan nan nan nan nan nan nan nan nan nan nan nan nan 226 nan nan nan 255 259 264 263 265 252 246 254 261 266 266 269 270 273 278 276 270 265 266 273 278 279 281 288 288 288 291 289 296 300 305 310 320 328 345 353 341 323 329 327 317 315 320 324 323 323 319 316 323 327
nan nan nan nan nan nan nan nan nan nan nan nan nan nan nan nan nan nan nan nan nan nan nan nan nan nan nan nan nan nan nan nan 259 249 nan nan 238 246 254 265 268 266 254 250 254 256 256 257 258 267 273 275 272 269 268 269 274 275 280 287 290 290 295 292 294 300 304 305 315 325 334 335 313 301 309 314 318 321 318 320 321 316 314 318 322 320
nan nan nan nan nan nan nan nan nan nan nan nan nan nan nan nan nan nan nan nan nan nan nan nan nan nan nan nan nan nan nan nan 233 242 nan nan 238 249 249 253 262 261 252 248 250 253 255 260 263 266 269 268 272 273 269 266 270 279 287 292 296 295 292 289 296 302 308 310 310 309 312 309 293 295 305 310 322 322 313 311 312 311 312 316 319 317
nan nan nan nan nan nan nan nan nan nan nan nan nan nan nan nan nan nan nan nan nan nan nan nan nan nan nan nan nan nan 204 215 nan 229 229 nan 247 248 252 253 253 256 248 244 244 247 249 253 257 259 262 264 269 276 276 269 270 279 289 292 300 303 297 293 295 303 313 311 298 296 297 291 291 289 302 308 303 298 302 305 300 303 302 302 308 315
nan nan nan nan nan nan nan nan nan nan nan nan nan nan nan nan nan nan nan nan nan nan nan nan nan nan nan nan nan nan nan 210 nan 231 nan 232 234 246 245 245 253 259 257 247 250 252 254 256 257 260 266 266 266 273 276 272 273 282 293 296 301 304 298 297 297 303 310 304 288 289 297 290 289 290 292 290 296 296 297 293 295 297 294 297 307 312
nan nan nan nan nan nan nan nan nan nan nan nan nan nan nan nan nan nan nan nan nan nan nan nan nan nan nan nan nan nan nan nan nan nan nan 230 242 240 nan 243 241 249 256 257 252 254 257 257 258 263 267 262 261 268 278 280 278 284 293 296 297 295 297 298 299 297 297 291 287 293 296 289 288 292 292 297 294 287 285 292 293 294 296 306 311 312
nan nan nan nan nan nan nan nan nan nan nan nan nan nan nan nan nan nan nan nan nan nan nan nan nan nan 241 nan nan nan nan nan nan nan nan nan 230 235 237 nan nan 250 253 253 254 254 257 259 259 264 267 261 261 271 276 277 282 285 289 290 287 294 300 299 298 297 293 285 289 294 292 290 289 291 293 289 287 283 285 292 295 294 297 301 309 317
nan nan nan nan nan nan nan nan nan nan nan nan nan nan nan nan nan nan nan nan nan nan nan nan nan nan nan nan nan nan nan nan nan nan 217 222 nan 236 nan 241 236 232 237 244 245 250 254 256 256 259 260 262 269 268 266 270 275 275 278 282 287 293 298 299 297 297 291 285 286 289 291 291 293 291 283 284 285 286 290 294 292 294 298 304 311 315
nan nan nan nan nan nan nan nan nan nan nan nan nan nan nan nan nan nan nan nan nan nan nan nan 239 nan 244 241 nan nan nan 230 nan 228 223 222 231 235 235 238 243 241 233 234 245 249 247 248 254 260 264 267 273 270 267 269 271 271 275 280 285 287 291 295 294 295 292 286 279 289 294 295 293 289 284 284 286 291 294 295 297 297 299 303 309 314
nan nan nan 204 nan nan nan nan nan nan nan nan nan nan nan nan nan nan nan nan 210 209 218 225 nan 224 233 233 231 226 nan nan nan nan nan nan nan nan nan nan nan nan nan 232 246 247 250 255 255 260 261 262 265 269 267 264 267 270 272 277 280 283 285 290 292 292 294 289 279 281 287 288 289 286 285 285 288 293 295 297 298 299 301 305 312 316
nan nan 201 nan 205 nan nan nan nan nan nan nan nan nan nan nan nan nan nan nan 211 210 217 223 222 224 228 229 225 228 nan nan nan nan nan nan nan nan nan nan nan nan nan nan 240 254 255 252 252 250 253 256 257 261 262 263 266 268 271 274 276 277 280 285 288 288 290 286 278 275 279 281 282 281 282 286 292 294 296 297 298 302 304 307 312 315
nan nan nan 202 nan nan nan nan nan nan nan nan 211 nan 222 220 nan 220 nan nan 216 216 219 224 225 224 227 228 230 234 nan nan nan nan 225 223 nan nan nan nan nan nan 234 229 231 245 253 258 261 257 254 256 256 252 251 258 265 267 270 273 274 273 276 282 285 285 288 286 276 271 273 275 279 281 283 287 290 292 294 297 299 297 298 302 303 303
nan nan nan nan nan 209 nan nan nan nan nan 211 216 nan 232 232 nan nan nan 223 224 223 223 226 229 228 230 229 230 232 232 232 229 229 226 224 nan 218 nan nan 233 240 238 234 231 236 245 248 249 250 253 254 253 251 252 252 255 262 267 270 271 272 274 279 283 283 282 275 269 266 267 271 277 278 282 285 284 285 288 288 289 293 295 296 298 298
nan nan nan nan nan 205 nan 209 nan nan 220 221 220 221 225 235 231 nan nan 233 230 228 227 230 231 233 234 233 229 230 229 232 233 234 233 229 226 224 222 227 237 241 239 235 230 231 240 242 245 251 257 258 253 245 245 247 254 264 267 265 266 271 273 273 274 274 273 270 267 265 267 268 273 277 277 279 280 279 281 283 287 292 295 295 295 295
nan 194 nan nan nan nan nan nan nan nan 220 225 223 225 217 226 nan nan 233 233 235 235 233 231 233 234 236 235 233 230 229 230 229 230 232 229 226 229 229 225 225 232 237 234 230 229 235 241 243 251 259 259 256 250 247 250 258 266 264 260 265 268 265 264 267 268 269 268 265 264 265 266 267 271 271 273 276 277 278 282 288 292 293 293 294 295
nan 196 197 195 nan nan 206 nan nan nan nan nan 226 223 223 228 225 227 233 234 236 238 237 231 230 232 235 233 232 232 230 228 230 232 231 229 226 224 225 231 232 228 227 236 233 228 231 236 242 250 257 258 259 257 258 260 260 258 256 258 264 261 257 259 262 264 264 263 261 262 264 265 270 269 269 272 276 278 280 283 287 290 290 292 293 295
206 201 197 196 202 nan nan nan nan 210 206 215 226 nan 225 228 228 227 234 236 234 235 236 234 231 230 231 234 231 231 231 230 230 230 230 225 224 226 227 228 232 235 237 234 230 229 233 231 229 236 246 253 254 255 258 260 257 251 250 251 249 252 255 256 256 258 258 256 257 259 259 262 265 266 268 273 274 276 279 283 286 287 289 292 293 295
208 208 201 196 200 205 204 204 200 195 195 206 223 226 226 221 226 233 235 236 235 233 235 236 232 231 231 232 231 230 232 230 230 230 230 225 224 229 229 229 231 234 239 242 238 230 229 231 228 223 223 230 242 249 251 253 253 250 249 242 243 251 255 255 255 255 255 254 254 255 256 257 260 263 266 269 273 275 279 281 284 286 289 291 292 295
211 208 202 201 202 202 200 204 203 200 199 194 207 222 227 226 225 227 230 234 233 235 235 235 232 233 234 235 236 232 233 233 230 228 228 226 226 228 232 231 231 230 233 237 238 234 229 235 237 234 230 224 216 219 236 245 250 250 241 239 243 248 251 253 253 252 252 250 249 251 253 254 256 259 263 265 269 274 279 283 286 288 289 290 292 295
211 211 209 208 201 204 nan 207 206 201 nan 192 203 217 228 231 230 231 232 234 237 235 235 231 230 231 236 237 236 235 234 234 235 233 233 232 229 229 231 232 234 235 234 234 236 237 235 238 239 239 241 237 229 222 215 230 240 240 237 238 240 244 248 250 251 250 249 248 247 249 251 252 254 256 260 264 268 272 277 280 283 287 289 290 292 294
209 209 210 209 201 205 205 209 205 206 205 nan nan 219 232 235 235 234 234 235 239 237 233 230 231 231 231 233 233 235 234 234 235 235 237 238 237 235 234 234 235 235 236 237 237 238 240 239 243 245 243 242 243 242 230 217 222 228 234 235 237 240 244 246 248 248 247 245 242 241 243 246 255 259 261 266 271 274 277 279 283 286 288 289 291 294
207 208 212 207 204 203 204 212 nan 208 212 nan nan 218 221 229 234 233 233 232 235 236 233 231 231 232 232 232 231 232 234 233 235 237 238 239 240 239 238 238 240 241 239 238 238 238 238 240 244 245 245 244 243 244 247 239 229 218 216 218 222 227 229 231 235 238 238 235 231 232 239 247 252 256 260 261 260 261 266 275 280 280 275 274 284 294
209 214 212 208 207 208 211 212 208 217 nan 223 nan 227 nan nan 233 233 231 230 229 230 231 234 nan 231 232 230 231 233 236 235 236 239 240 239 241 242 243 242 241 242 243 244 243 243 246 244 240 245 248 245 242 243 250 251 239 230 225 227 226 229 233 232 235 236 235 234 234 238 246 250 253 259 263 266 269 270 267 260 260 265 276 281 279 281
205 211 213 nan 207 207 208 209 216 219 222 nan 228 nan 230 nan 236 236 235 236 233 nan 231 234 234 232 231 230 230 233 234 236 237 238 240 240 240 242 245 247 246 243 242 242 243 247 253 245 240 245 249 244 243 246 250 254 243 237 232 230 232 233 236 239 237 233 233 235 239 247 252 256 258 260 263 265 268 269 270 269 264 262 265 273 279 281